Regional Weather Roundup
Issued by NWS Charleston, SC

Current Version | Previous Version | Graphics & Text | Print | Product List | Glossary On
Versions: 1 2 3 4 5 6 7 8 9 10 11 12 13 14 15 16 17 18 19 20 21 22 23 24 25 26 27 28 29 30 31 32 33 34 35 36 37 38 39 40 41 42 43 44 45 46 47 48 49 50
000 ASUS42 KCHS 282010 RWRCHS REGIONAL WEATHER ROUNDUP NATIONAL WEATHER SERVICE CHARLESTON SC 400 PM EDT THU AUG 28 2014 NOTE: "FAIR" INDICATES FEW OR NO CLOUDS BELOW 12,000 FEET WITH NO SIGNIFICANT WEATHER AND/OR OBSTRUCTIONS TO VISIBILITY. NOT ALL STATIONS ARE QUALITY CONTROLLED BY THE NATIONAL WEATHER SERVICE. USE DATA WITH CAUTION...ESPECIALLY DEWPOINT OBSERVATIONS. SCZ027-030-031-034>040-042>050-282100- ...SOUTH CAROLINA... CITY SKY/WX TMP DP RH WIND PRES REMARKS N CHARLESTON MOSUNNY 92 59 33 VRB5 29.98F HX 91 WATERFRONT PRK N/A 84 N/A N/A S14 N/A FORT JOHNSON NOT AVBL MOUNT PLEASANT FAIR 88 70 55 S13 29.99S HX 92 JOHNS ISLAND CLEAR 88 66 48 S9 29.99F HX 90 PINOPOLIS N/A 93 59 31 CALM 29.91F HX 92 MONCKS CORNER N/A 91 64 40 CALM 29.98F HX 93 SUMMERVILLE FAIR 91 55 29 CALM 29.99F BEAUFORT MCAS MOSUNNY 92 61 35 VRB3 29.99F HX 92 BEAUFORT ARPT FAIR 88 64 45 SW6 29.99F HILTON HEAD IS SUNNY 88 63 42 SE6 30.02F GEORGETOWN NOT AVBL WALTERBORO CLEAR 93 45 18 NW5 29.98F ORANGEBURG SUNNY 92 47 21 CALM 29.97F BARNWELL FAIR 95 52 23 S5 29.98F HX 92 AIKEN FAIR 95 55 26 CALM 30.00F HX 93 MANNING FAIR 93 55 27 SW3 29.97F HX 91 KINGSTREE NOT AVBL COLUMBIA MOSUNNY 95 55 26 S8 29.96F HX 93 SUMTER SUNNY 95 60 31 E7 29.95F HX 95 FLORENCE SUNNY 93 61 34 SW6 29.96F HX 93 MYRTLE BEACH SUNNY 88 66 48 S14 29.98F HX 90 N MYRTLE BEACH NOT AVBL $$ GAZ063-065-086>088-099>101-113>116-118-119-134-136>141-150-282100- ...GEORGIA... CITY SKY/WX TMP DP RH WIND PRES REMARKS SAVANNAH ARPT MOSUNNY 91 61 36 SE7G20 29.99F HX 91 HUNTER AAF SUNNY 89 61 39 SE8 29.98F FORT STEWART SUNNY 92 58 31 S7 29.98F HX 90 STATESBORO NOT AVBL SYLVANIA CLEAR 92 65 39 SE5 29.99F HX 94 CLAXTON NOT AVBL THOMSON SUNNY 95 63 34 CALM 30.01F HX 96 AUGUSTA-BUSH SUNNY 94 52 24 SE8 29.96F HX 91 AUGUSTA-DANIEL SUNNY 95 43 16 VRB3 29.98F HX 91 SWAINSBORO FAIR 95 59 30 CALM 29.98F HX 94 VIDALIA N/A 93 59 31 CALM 29.98F HX 92 ALMA SUNNY 91 59 33 VRB7 29.99F HX 90 WAYCROSS SUNNY 94 60 32 N3 29.98F HX 94 JESUP N/A 95 64 36 SE5 29.98F HX 97 BRUNSWICK MOSUNNY 88 64 45 SE8G17 30.01F SAINT SIMONS SUNNY 84 71 65 E9 30.01F $$ SCZ027-028-034-036>038-045-046-048>050-GAZ119-141-282100- ...LAKE AND SUPPLEMENTAL COASTAL OBSERVATIONS... STATION/POSITION TIME TEMP WIND PRES WAVE SWELL AIR SEA DIR/SP/G HT/PER HT/PER/DIR (UTC) (F) (DEG/KT/KT) (MB) (FT/S) (FT/S/D) UPR LAKE MARION NOT AVBL WINYAH BAY 1900 85 140/ 7 1015.0S LAKE MURRAY 1900 92 190/ 2/ 2 1014.6F ACE BASIN NERRS 1900 87 160/ 2 1017.0S FORT PULASKI 2000 84 150/ 5/ 7 1016.3F SAPELO ISLAND 1900 89 120/ 5 1017.0F $$ ANZ835-935-AMZ111-154-330-350-352-354-374-450-454-472-282100- ...C-MAN AND BUOY OBSERVATIONS... STATION/POSITION TIME TEMP WIND PRES WAVE SWELL AIR SEA DIR/SP/G HT/PER HT/PER/DIR (UTC) (F) (DEG/KT/KT) (MB) (FT/S) (FT/S/D) FOLLY BEACH CMAN 1900 83 180/ 10/ 11 1016.5F BUOY 41004 2000 81 84 230/ 6/ 8 1015.7F 4/11 3/11 BUOY 41008 2000 81 85 50/ 8/ 10 1016.3F 3/10 3/ 80/10 5E ST. MARYS GA 2000 85 N/A 3/10 2/ 90/11 FRYING PAN BUOY NOT AVBL BUOY 41025 2000 82 240/ 12/ 14 1014.2F 4/10 3/150/10 CAPE LOOKOUT NC 1900 81 230/ 11/ 13 1014.6F BUOY 41002 1901 80 83 230/ 2/ 4 1016.9S 6/ 8 5/ 60/ 8 BUOY 41010 2000 83 85 160/ 4/ 6 1016.2F 5/ 9 5/ 60/ 9 BUOY 41012 NOT AVBL ST AUGUSTINE FL 2000 81 60/ 8/ 9 1016.4F CAPERS NEARSHORE 1900 83 190/ 10/ 10 N/A FRIPP NEARSHORE NOT AVBL $$

USA.gov is the U.S. government's official web portal to all federal, state and local government web resources and services.